Weather in Goryachinsk

Russia / Republic of Buryatia     52°59′08″N   108°18′00″E
temp.,
°C
wind,
m/s
gust,
m/s
humid.,
%
clouds,
%
prec.,
mm/h
press.,
hPa
HPBL,
m
12 april, mon
mon1223:00−8se11713 0.0 103612
02:00−9s11735 0.0 103712
05:00−10sse22802 0.0 103621
08:00−6s236544 0.0 1035225
11:00−3wsw4560100 0.0 1032786
14:00−1w335399 0.0 1030916
17:00−1wnw2251100 0.0 1028627
20:00−5nne11716 0.0 102810
13 april, tue
tue1323:00−6ese227428 0.0 102810
02:00−7se21785 0.0 102710
05:00−7se22815 0.0 102611
08:00−3s236788 0.0 1024173
11:000wsw367486 0.0 1021641
14:00+2wsw3665100 0.0 1017637
17:00+2sw3866100 0.0 1015379
20:00+1wsw4988100 0.6 1014363
14 april, wed
wed1423:000w4885100 0.0 1015199
02:00−3wsw228895 0.0 101639
05:00−5s1192100 0.0 101712
08:00−2wsw1674100 0.0 1017430
11:00+1w4663100 0.0 1017956
14:00+2wsw5659100 0.2 10161063
17:00+2w3752100 0.1 10151182
20:00−3wsw227447 0.1 101613
15 april, thu
thu1523:00−3wsw368239 0.1 1016109
02:00−6sw379114 0.1 1016123
05:00−5ssw3791100 0.0 1014141
08:00−2sw478095 0.1 1013539
11:000w4473100 0.3 1012768
14:00+1w4564100 0.4 10121003
17:000w458171 0.1 1013597
20:00−2wnw2387100 0.6 101551
16 april, fri
fri1623:00−6w11946 0.0 101810
02:00−6s349521 0.0 102058
05:00−7s239343 0.0 102142
08:00−3ssw37736 0.0 1020379
11:00+1wsw475631 0.0 1018999
14:00+3wsw475342 0.0 1016686
17:00+3wsw3855100 0.0 1014491
20:00+2sse226387 0.0 101311